Location: Unspecified
(0.0000°N, 0.0000°E)
Time: 23:28:44
(UTC+00:00)

Vanguard 1 Rocket - Visible Passes

Search period start: 19 January 2017 00:00
Search period end: 29 January 2017 00:00
Orbit: 650 x 4226 km, 34.3° (Epoch: 18 January)

Date Brightness Start Highest point End Pass type
(mag) Time Alt. Az. Time Alt. Az. Time Alt. Az.
19 Jan 11.1 20:18:10 10° SW 20:27:08 14° S 20:34:11 10° SSE visible
19 Jan 10.7 22:54:10 10° SSW 22:58:08 15° S 22:58:08 15° S visible
20 Jan 11.4 18:55:27 10° SW 19:10:19 18° SSW 19:21:55 10° SSE visible
20 Jan 10.7 21:39:40 10° SSW 21:47:21 15° S 21:50:43 13° SSE visible
21 Jan 11.0 20:22:09 10° SSW 20:32:02 15° S 20:39:32 10° SSE visible
21 Jan 10.6 22:55:53 10° SSW 23:00:33 18° SSW 23:00:33 18° SSW visible
22 Jan 11.3 19:01:13 10° SW 19:15:16 18° S 19:26:10 10° SSE visible
22 Jan 10.5 21:41:34 10° SSW 21:51:47 19° SSE 21:53:08 19° SSE visible
23 Jan 10.8 20:25:14 10° SSW 20:36:50 18° S 20:45:08 10° SE visible
23 Jan 10.6 22:57:54 10° SW 23:03:01 21° SSW 23:03:01 21° SSW visible
24 Jan 11.2 19:06:09 10° SW 19:20:20 18° S 19:31:05 10° SE visible
24 Jan 10.3 21:43:31 10° SSW 21:55:37 26° SSE 21:55:37 26° SSE visible
25 Jan 10.6 20:27:49 10° SSW 20:41:27 21° S 20:48:15 15° SE visible
25 Jan 10.6 23:00:08 10° SW 23:05:31 23° SSW 23:05:31 23° SSW visible
26 Jan 11.0 19:10:11 10° SW 19:25:19 20° S 19:36:24 10° SE visible
26 Jan 10.1 21:45:33 10° SW 21:58:10 33° S 21:58:10 33° S visible
27 Jan 10.3 20:30:08 10° SSW 20:45:51 27° SSE 20:50:50 22° SE visible
27 Jan 10.6 23:02:34 10° SW 23:08:06 24° SW 23:08:06 24° SW visible
28 Jan 10.8 19:13:27 10° SW 19:30:08 23° S 19:41:46 10° ESE visible
28 Jan 10.0 21:47:42 10° SW 22:00:47 40° S 22:00:47 40° S visible
